Location: Maccacari
(45.1333°N, 11.1333°E)
Time: 11:42:24
(UTC+00:00)

A-11 Canister half - Pass Details

Date: 29 January 2021
Orbit: 1524 x 1684 km, 47.3° (Epoch: 24 February)

Event Time Altitude Azimuth Distance (km) Brightness Sun altitude
Rises 18:53:03 0° 293° (WNW) 4,741 12.6 -27.2°
Reaches altitude 10° 18:56:15 10° 288° (WNW) 3,775 11.9 -27.8°
Maximum altitude 19:05:08 45° 220° (SW) 2,096 9.8 -29.3°
Enters shadow 19:11:34 20° 160° (SSE) 3,124 10.4 -30.5°
